CW1852 Weather Reports


Display with metric or nautical units.
time (UTC)temp
F
wind
direction
speed
MPH
gust
MPH
rain 1hr
in
rain 24hr
in
rain mn
in
humidity
%
barometer
mb
20260905193203 71 58 3.0 7.0 0.00 0.23 0.00 62 1008.6
20260905192224 69 66 3.0 13.0 0.00 0.23 0.00 66 1008.8
20260905191202 69 353 3.0 12.0 0.00 0.23 0.00 66 1008.8
20260905190203 68 57 2.0 9.0 0.00 0.23 0.00 68 1008.9
20260905185202 67 49 3.0 8.0 0.00 0.23 0.00 68 1008.9
20260905184224 68 5 2.0 9.0 0.00 0.23 0.00 68 1008.8
20260905183203 69 24 4.0 10.0 0.00 0.23 0.00 64 1008.6
20260905182203 71 67 3.0 11.0 0.00 0.23 0.00 63 1008.6
20260905181203 70 67 3.0 8.0 0.00 0.23 0.00 65 1008.7
20260905180203 70 49 3.0 8.0 0.00 0.23 0.00 66 1008.9
20260905175204 69 37 4.0 15.0 0.00 0.23 0.00 65 1008.9
20260905174203 70 60 5.0 12.0 0.00 0.23 0.00 64 1008.8
20260905173202 70 53 5.0 18.0 0.00 0.23 0.00 65 1008.9
20260905172224 69 49 5.0 16.0 0.00 0.23 0.00 68 1008.9
20260905171204 70 55 5.0 14.0 0.00 0.23 0.00 64 1008.9
20260905170203 69 59 3.0 10.0 0.00 0.23 0.00 66 1008.9
20260905165203 69 25 4.0 13.0 0.00 0.23 0.00 67 1009.1
20260905164203 69 53 4.0 11.0 0.00 0.23 0.00 68 1009.0
20260905163203 69 25 4.0 12.0 0.00 0.23 0.00 67 1009.0
20260905162203 68 65 4.0 14.0 0.00 0.23 0.00 69 1009.1
20260905161223 68 56 6.0 14.0 0.00 0.23 0.00 69 1009.0
20260905160245 68 63 4.0 15.0 0.00 0.23 0.00 70 1009.0
20260905155203 69 59 6.0 14.0 0.00 0.23 0.00 68 1009.0
20260905154224 68 63 4.0 10.0 0.00 0.23 0.00 73 1009.0
20260905153223 68 62 8.0 14.0 0.00 0.23 0.00 71 1008.9
20260905152203 69 70 4.0 14.0 0.00 0.23 0.00 72 1008.8
20260905151203 68 62 4.0 12.0 0.00 0.23 0.00 71 1008.8
20260905150203 68 51 4.0 15.0 0.00 0.23 0.00 72 1008.8
20260905145203 68 51 6.0 14.0 0.00 0.23 0.00 73 1008.8
20260905144202 68 69 5.0 16.0 0.00 0.23 0.00 75 1008.7
20260905143203 66 54 4.0 14.0 0.00 0.23 0.00 78 1008.7
20260905142202 66 54 4.0 14.0 0.00 0.23 0.00 80 1008.5
20260905141203 67 54 7.0 12.0 0.00 0.23 0.00 79 1008.3
20260905140202 67 70 5.0 10.0 0.00 0.23 0.00 80 1008.2
20260905135203 66 62 6.0 10.0 0.00 0.23 0.00 82 1008.3
20260905134203 65 62 4.0 7.0 0.00 0.23 0.00 83 1008.2
20260905133203 65 60 4.0 11.0 0.00 0.23 0.00 83 1008.0
20260905132224 65 67 4.0 8.0 0.00 0.23 0.00 85 1008.0
20260905131202 64 66 3.0 7.0 0.00 0.23 0.00 89 1008.0
20260905130203 64 315 2.0 9.0 0.00 0.23 0.00 88 1007.9
20260905125202 65 57 4.0 9.0 0.00 0.23 0.00 88 1007.8
20260905124203 64 60 1.0 4.0 0.00 0.23 0.00 90 1007.9
20260905123203 64 64 2.0 8.0 0.00 0.23 0.00 90 1007.8
20260905122202 63 65 2.0 7.0 0.00 0.23 0.00 90 1007.7
20260905121204 63 29 2.0 8.0 0.00 0.23 0.00 91 1007.7
20260905120202 63 62 3.0 8.0 0.00 0.23 0.00 91 1007.6
20260905115204 63 74 2.0 7.0 0.00 0.23 0.00 90 1007.5
20260905114203 63 82 2.0 7.0 0.00 0.23 0.00 90 1007.4
20260905113224 63 356 1.0 11.0 0.00 0.23 0.00 90 1007.4
20260905112203 62 325 2.0 10.0 0.00 0.23 0.00 90 1007.2
20260905111203 62 334 2.0 8.0 0.00 0.23 0.00 91 1007.1
20260905110203 62 58 2.0 7.0 0.00 0.23 0.00 91 1007.0
20260905105223 61 10 2.0 7.0 0.00 0.23 0.00 92 1006.8
20260905104203 61 103 2.0 7.0 0.00 0.23 0.00 92 1006.7
20260905103203 61 297 1.0 6.0 0.00 0.23 0.00 92 1006.7
20260905102203 61 306 2.0 7.0 0.00 0.23 0.00 93 1006.6
20260905101204 61 350 2.0 8.0 0.00 0.23 0.00 92 1006.5
20260905100203 61 20 1.0 8.0 0.00 0.23 0.00 92 1006.4
20260905095203 61 307 1.0 6.0 0.00 0.23 0.00 92 1006.4
20260905094224 61 338 2.0 6.0 0.00 0.23 0.00 91 1006.3
20260905093202 61 330 2.0 8.0 0.00 0.23 0.00 91 1006.2
20260905092204 62 309 2.0 11.0 0.00 0.23 0.00 92 1006.1
20260905091203 61 315 1.0 11.0 0.00 0.23 0.00 92 1006.1
20260905090203 61 354 1.0 4.0 0.00 0.23 0.00 93 1006.2
20260905085203 61 7 2.0 8.0 0.00 0.23 0.00 93 1006.2
20260905084203 61 321 2.0 5.0 0.00 0.23 0.00 93 1006.2
20260905083203 61 319 1.0 8.0 0.00 0.23 0.00 93 1006.2
20260905082202 61 320 1.0 5.0 0.00 0.23 0.00 93 1006.2
20260905081203 61 320 1.0 8.0 0.00 0.23 0.00 93 1006.1
20260905080202 62 320 1.0 4.0 0.00 0.23 0.00 93 1006.0
20260905075203 62 320 1.0 5.0 0.00 0.23 0.00 93 1005.9
20260905074202 62 320 2.0 4.0 0.00 0.23 0.00 93 1006.0
20260905073224 62 320 2.0 6.0 0.00 0.23 0.00 93 1006.0
20260905072202 62 317 1.0 8.0 0.00 0.23 0.00 94 1006.0
20260905071203 62 318 1.0 9.0 0.00 0.23 0.00 94 1005.9
20260905070203 62 320 1.0 5.0 0.00 0.23 0.00 94 1006.0
20260905065202 62 319 1.0 5.0 0.00 0.23 0.00 94 1005.9
20260905064203 62 320 1.0 4.0 0.00 0.23 0.00 94 1005.8
20260905063202 62 320 1.0 6.0 0.00 0.23 0.00 93 1005.8
20260905062203 62 320 0.0 6.0 0.00 0.23 0.00 94 1005.8
20260905060203 62 321 2.0 5.0 0.00 0.23 0.00 94 1005.8
20260905055202 63 322 1.0 4.0 0.00 0.23 0.00 94 1005.9
20260905054224 62 323 1.0 6.0 0.00 0.23 0.00 95 1005.9
20260905053203 62 327 1.0 6.0 0.00 0.23 0.00 96 1005.9
20260905052202 62 316 2.0 5.0 0.00 0.23 0.00 96 1006.0
20260905051203 62 315 1.0 3.0 0.00 0.23 0.00 96 1006.1
20260905050203 62 315 0.0 5.0 0.00 0.23 0.00 96 1005.9
20260905045203 62 315 1.0 3.0 0.00 0.23 0.00 96 1006.0
20260905044203 62 315 1.0 3.0 0.00 0.23 0.00 96 1006.0
20260905043203 62 315 1.0 6.0 0.00 0.23 0.00 96 1006.2
20260905042202 62 315 1.0 4.0 0.00 0.23 0.00 96 1006.1
20260905041224 62 315 2.0 4.0 0.00 0.23 0.00 96 1006.0
20260905040223 62 315 1.0 3.0 0.00 0.23 0.00 96 1006.0
20260905035203 62 315 1.0 3.0 0.00 0.23 0.23 96 1006.1
20260905034203 63 315 1.0 5.0 0.00 0.23 0.23 96 1005.9
20260905033203 63 315 2.0 5.0 0.00 0.23 0.23 96 1006.0
20260905032203 62 314 1.0 3.0 0.00 0.23 0.23 96 1006.1
20260905031202 62 314 0.0 2.0 0.00 0.23 0.23 96 1006.0
20260905030203 63 314 0.0 1.0 0.00 0.23 0.23 96 1006.0
20260905025224 63 314 0.0 1.0 0.00 0.23 0.23 96 1005.9
20260905024203 63 314 0.0 3.0 0.00 0.23 0.23 96 1005.9
20260905023203 64 315 0.0 1.0 0.00 0.23 0.23 96 1006.1
20260905022245 64 314 0.0 2.0 0.00 0.23 0.23 96 1006.1
20260905021203 65 315 0.0 0.0 0.00 0.23 0.23 96 1006.1
20260905020203 65 314 0.0 3.0 0.00 0.23 0.23 96 1006.1
20260905015203 65 315 0.0 3.0 0.00 0.23 0.23 96 1006.1
20260905014203 65 315 0.0 3.0 0.00 0.23 0.23 96 1006.2
20260905013224 65 316 0.0 0.0 0.00 0.23 0.23 96 1006.3
20260905012203 65 316 0.0 0.0 0.00 0.23 0.23 96 1006.4
20260905011202 65 316 0.0 0.0 0.00 0.23 0.23 96 1006.3
20260905010203 65 316 0.0 0.0 0.00 0.23 0.23 96 1006.4
20260905005203 65 316 0.0 2.0 0.00 0.23 0.23 96 1006.4
20260905004223 65 315 1.0 2.0 0.00 0.23 0.23 96 1006.4
20260905003203 66 315 1.0 2.0 0.00 0.23 0.23 96 1006.3
20260905002202 66 316 0.0 1.0 0.00 0.23 0.23 96 1006.3
20260905001203 65 315 0.0 1.0 0.00 0.23 0.23 96 1006.1
20260905000204 65 315 0.0 1.0 0.00 0.23 0.23 95 1006.1
20260904235224 65 316 0.0 2.0 0.00 0.23 0.23 96 1006.1
20260904234203 65 315 1.0 3.0 0.00 0.23 0.23 95 1006.0
20260904233224 66 315 1.0 3.0 0.00 0.23 0.23 96 1006.0
20260904232203 66 316 0.0 0.0 0.00 0.23 0.23 95 1005.9
20260904231203 66 316 0.0 0.0 0.00 0.23 0.23 95 1005.8
20260904230202 66 316 0.0 0.0 0.00 0.23 0.23 95 1005.9
20260904225203 66 316 0.0 1.0 0.00 0.23 0.23 96 1005.9
20260904224203 67 315 0.0 3.0 0.00 0.23 0.23 95 1006.0
20260904223202 68 315 1.0 2.0 0.00 0.23 0.23 96 1006.0
20260904222203 68 316 0.0 2.0 0.00 0.23 0.23 95 1005.9
20260904221203 68 315 0.0 1.0 0.00 0.23 0.23 95 1005.8
20260904220203 68 316 0.0 1.0 0.00 0.23 0.23 95 1005.7
20260904215203 69 315 0.0 2.0 0.00 0.23 0.23 95 1005.8
20260904214203 69 315 0.0 2.0 0.00 0.23 0.23 95 1005.8
20260904213203 68 316 1.0 3.0 0.00 0.23 0.23 95 1005.9
20260904212203 68 316 1.0 2.0 0.00 0.23 0.23 95 1005.9
20260904211203 67 316 0.0 3.0 0.00 0.23 0.23 94 1005.9
20260904210203 68 293 0.0 3.0 0.00 0.23 0.23 94 1005.8
20260904205203 68 286 0.0 3.0 0.23 0.23 0.23 94 1006.0
20260904204225 69 286 0.0 3.0 0.13 0.13 0.13 90 1006.2
20260904203202 70 322 2.0 5.0 0.00 0.00 0.00 83 1006.0
20260904202203 71 282 1.0 8.0 0.00 0.00 0.00 81 1005.5
20260904201224 72 233 2.0 5.0 0.00 0.00 0.00 80 1005.4
20260904200202 74 182 2.0 7.0 0.00 0.00 0.00 77 1005.5
20260904195203 73 183 3.0 8.0 0.00 0.00 0.00 77 1005.4
20260904194202 74 259 3.0 9.0 0.00 0.00 0.00 76 1005.7